星链-2439 (STARLINK-2439 )

导读

STARLINK-2439是美国太空探索技术公司星链星座中的一颗卫星,于2021年4月7日发射入轨。星链项目旨在构建全球卫星互联网星座,该卫星承担为全球偏远地区、海洋空域等区域提供低延迟宽带互联网接入服务的任务,属于星链低轨卫星组网的组成部分。

Basic Information
目录编号:
48104
目录名称:
STARLINK-2439
国际标识:
2021-027N
轨道中心:
EARTH
卫星名称:
星链-2439
卫星全名:
星链-2439 (STARLINK-2439 )
卫星状态:
在轨 (已飞行1898 天)
发射日期:
2021-04-07 UTC
国别 :
美国 (US)
星等 :
--
Orbit Information
数据来源 国际轨道数据 AOE轨道数据
星历时间 2026-06-18T05:35:59+0800
19小时前
查看轨道信息
2026-06-15T00:00:00+0800
4天前
查看轨道信息
半长轴 6848.901km 6848.929km
偏心率 0.0001297 0.0000913
轨道倾角 53.161° 53.161°
近地点辐角 111.557° 99.147°
升交点赤经 46.590° 61.650°
平近点角 248.557° 62.094°
近地点 469.875km 470.166km
远地点 471.653km 471.418km
周期 94.014分钟 94.014分钟
每日圈数 15.316921 15.316827
Detailed Information
固有亮度:
5
最大亮度:
2.5
卫星平台:
Starlink V1.0
覆盖范围:
全球
运营商:
太空探索技术公司
运营商所在国:
美国
制造商(研发单位):
太空探索技术公司
制造商所在国:
美国
使用方式:
暂无
Satellite Introduction
星链(Starlink)计划是由太空探索技术公司(SpaceX)提出的一个巨型低轨卫星互联网星座项目,计划在2019年至2024年间在太空搭建由约1.2万颗卫星组成的“星链”网络,其中1584颗将部署在地球上空550千米处的近地轨道,并从2020年开始工作。该卫星仍在工作。
2D Orbit Map
3D Orbit Map
Orbit Altitude Analysis Chart
Orbit Inclination Analysis Chart
Orbit Comprehensive Analysis Chart
View Comprehensive Chart